Flag for Canada Weather past 2 weeks in Nanaimo, British Columbia, Canada

Now
38 °F

Chilly.


Feels Like: 34 °F
Forecast: 38 / 45 °F
Wind: 6 mph from West

Location: Entrance Island

Current Time: Jan 31, 2015 at 5:51:31 AM

Latest Report: Jan 31, 2015 at 5:00 AM


Visibility: N/A

Pressure: 30.27 "Hg

Humidity: 100%

Dew point: 38 °F

Location of NanaimoLocation

Historic Weather in Nanaimo — Graph

°F

Nanaimo temperature yesterday

Maximum temperature yesterday: 44 °F (at 12:00 AM)
Minimum temperature yesterday: 38 °F (at 5:00 AM)
Average temperature yesterday: 41 °F

Past Weeks' High & Low Weather Summary

 TemperatureHumidityPressure
High54 °F (Jan 18, 11:00 AM)100% (Jan 26, 7:00 AM)30.47 "Hg (Jan 26, 7:00 AM)
Low38 °F (Jan 30, 5:00 AM)50% (Jan 18, 11:00 AM)29.43 "Hg (Jan 18, 2:00 AM)
Average45 °F87%30.18 "Hg
* Reported Jan 16 4:00 AM — Jan 31 4:00 AM, Nanaimo, Weather by CustomWeather, © 2014

Note: Actual official high and low records may vary slightly from our data, if they occured in-between our weather recording intervals... More about our weather records

Advertising

Nanaimo weather history for previous 24 hours

 ConditionsComfort  
Time TempWeatherWind HumidityBarometerVisibility
4:00 AM
Jan 31
41 °FQuite cool.2 mph95%30.28 "HgN/A
3:00 AM41 °FQuite cool.3 mph94%30.28 "HgN/A
2:00 AM41 °FQuite cool.6 mph94%30.27 "HgN/A
1:00 AM42 °FQuite cool.9 mph94%30.27 "HgN/A
12:00 AM40 °FQuite cool.12 mph100%30.26 "HgN/A
11:00 PM
Jan 30
42 °FQuite cool.16 mph94%30.25 "HgN/A
10:00 PM42 °FQuite cool.13 mph86%30.25 "HgN/A
9:00 PM42 °FQuite cool.18 mph86%30.26 "HgN/A
8:00 PM42 °FQuite cool.17 mph93%30.26 "HgN/A
7:00 PM42 °FQuite cool.17 mph93%30.27 "HgN/A
6:00 PM43 °FQuite cool.16 mph91%30.27 "HgN/A
5:00 PM43 °FQuite cool.12 mph90%30.27 "HgN/A
4:00 PM42 °FQuite cool.10 mph93%30.28 "HgN/A
3:00 PM41 °FQuite cool.6 mph95%30.28 "HgN/A
2:00 PM41 °FQuite cool.8 mph96%30.29 "HgN/A
1:00 PM40 °FChilly.3 mph95%30.30 "HgN/A
12:00 PM40 °FQuite cool.1 mph94%30.32 "HgN/A
11:00 AM41 °FQuite cool.6 mph95%30.32 "HgN/A
10:00 AM42 °FQuite cool.8 mph94%30.31 "HgN/A
9:00 AM40 °FChilly.1 mph95%30.30 "HgN/A
8:00 AM40 °FChilly.No wind94%30.31 "HgN/A
7:00 AM40 °FQuite cool.2 mph93%30.32 "HgN/A
6:00 AM40 °FQuite cool.1 mph93%30.31 "HgN/A
5:00 AM38 °FChilly.1 mph99%30.32 "HgN/A
Weather by CustomWeather, © 2014

See weather overviewHow to use our weather pages